Location: D?bie Dolne
(50.3333°N, 19.1333°E)
Time: 08:49:21
(UTC+00:00)

Daily predictions for brighter satellites

Satellite Brightness Start Highest point End
(mag) Time Altitude Azimuth Time Altitude Azimuth Time Altitude Azimuth
Timation 2 Rocket 4.2 15:46:27 10° NNW 15:53:04 84° ENE 15:59:54 10° SSE
Cosmos 2369 Rocket 3.9 15:49:08 10° WSW 15:54:06 30° NW 15:59:08 10° NNE
Cosmos 2297 Rocket 2.3 15:49:04 10° NNW 15:54:42 59° NE 16:00:17 10° SE
CZ-4 R/B 2.9 15:52:56 10° E 15:55:20 16° ENE 15:57:44 10° NNE
CORIOLIS 4.1 15:50:02 10° SSE 15:55:20 69° ENE 16:00:41 10° N
Cosmos 1758 Rocket 3.7 15:51:29 10° NNW 15:55:55 82° W 16:00:15 10° S
SL-4 R/B 1.7 15:53:21 10° W 15:56:50 70° N 16:00:31 10° E
Cosmos 1346 Rocket 4.1 15:54:37 10° NNE 15:57:35 20° ENE 16:00:32 10° ESE
Cosmos 2058 4.3 15:54:46 10° NNE 15:57:42 19° ENE 16:00:38 10° ESE
Cosmos 1452 Rocket 4.3 15:54:00 10° SW 15:59:11 56° WNW 16:04:25 10° NNE
H-2A R/B 4.4 15:59:58 10° SSW 16:03:25 38° W 16:06:54 10° NNW
CZ-2C R/B 4.2 15:59:36 10° ESE 16:04:14 26° ENE 16:08:45 10° N
Cosmos 1953 4.2 16:01:38 10° SW 16:05:15 33° WNW 16:08:54 10° N
Cosmos 1606 Rocket 3.5 16:05:15 10° S 16:09:36 70° E 16:14:01 10° NNE
Cosmos 1315 Rocket 4.5 16:08:59 10° ESE 16:11:07 14° E 16:13:17 10° NE
NOSS 3-4 (A) 4.4 16:05:11 10° NW 16:11:20 38° NNE 16:18:07 10° E
NOSS 3-4 (C) 4.4 16:05:17 10° NW 16:11:26 38° NNE 16:18:12 10° E
Meteor 2-10 Rocket 4.5 16:11:14 10° SE 16:15:24 25° E 16:19:30 10° NE
YAOGAN 6 3.8 16:12:25 10° S 16:15:59 49° W 16:19:36 10° NNW
FengYun 1-2 T 4.3 16:11:27 10° SSE 16:17:06 80° ENE 16:22:45 10° NNW
USA 305 2.9 16:13:16 10° WNW 16:17:35 81° NNE 16:21:54 10° ESE
SKYMED 2 4.3 16:14:32 10° NNE 16:18:25 31° E 16:22:17 10° SSE
Meteor 2-16 Rocket 4.4 16:13:14 10° N 16:19:22 81° E 16:25:28 10° SSE
Cosmos 292 Rocket 3.7 16:15:20 10° SSW 16:20:08 78° ESE 16:25:00 10° NNE
Cosmos 1943 Rocket 4.4 16:17:16 10° WNW 16:20:48 17° NNW 16:24:19 10° N
Cosmos 1455 3.6 16:21:06 10° SE 16:23:43 18° E 16:26:22 10° NE
SeaSat 1 3.8 16:20:50 12° E 16:23:56 21° NE 16:27:36 10° N
USA 306 2.9 16:19:47 10° WNW 16:24:06 86° NNE 16:28:15 11° ESE
H-2A R/B 3.1 16:20:38 10° ESE 16:25:06 27° ENE 16:29:36 10° N
Aureole 3 Rocket 3.6 16:21:12 10° SSE 16:25:22 52° E 16:31:12 10° NNE
BREEZE-M R/B 4.0 16:16:09 10° W 16:26:36 80° S 16:28:59 16° E
Cosmos 2219 3.4 16:22:27 10° NNW 16:28:14 82° WSW 16:33:59 10° SSE
USA 215 3.7 16:22:49 12° ENE 16:28:43 50° N 16:34:59 10° WNW
Okean-O 3.1 16:25:07 10° SE 16:29:14 39° ENE 16:33:22 10° N
Cosmos 1745 Rocket 4.3 16:23:40 10° N 16:29:43 46° ENE 16:35:47 10° SE
SMAP 4.0 16:25:30 10° S 16:30:02 52° W 16:34:36 10° NNW
ATLAS 5 CENTAUR R/B 3.6 16:27:58 10° WNW 16:31:27 21° NNW 16:35:19 10° NE
Cosmos 1331 Rocket 4.3 16:26:29 10° SSW 16:31:38 71° WNW 16:36:48 10° NNE
ATLAS 2AS CENTAUR R/B 3.5 16:26:09 10° NW 16:33:23 41° NNE 16:38:50 16° E
FALCON 9 DEB 2.9 16:30:17 10° WSW 16:33:30 73° SSE 16:35:34 20° ENE
Cosmos 2082 3.8 16:29:49 10° NNW 16:35:30 57° NE 16:41:08 10° SE
FALCON 9 DEB 2.9 16:32:19 10° WSW 16:35:31 78° SSE 16:37:27 22° ENE
YAOGAN 3 4.5 16:32:14 10° SSE 16:36:36 79° ENE 16:40:59 10° NNW
Lacrosse 5 2.7 16:32:42 10° WNW 16:37:27 39° N 16:41:00 17° ENE
Cosmos 1953 Rocket 4.3 16:34:11 10° NNW 16:38:33 59° W 16:42:55 10° S
ARGOS 4.1 16:35:50 11° ESE 16:40:05 27° ENE 16:44:35 10° N
GEOS 3 Rocket 4.2 16:36:12 15° E 16:40:21 43° NE 16:45:26 10° NW
Cosmos 1656 3.7 16:36:40 10° S 16:42:08 60° ESE 16:47:43 10° NE
Cosmos 968 Rocket 3.4 16:37:39 10° NNW 16:42:54 84° ENE 16:48:05 10° SSE
Cosmos 1408 2.9 16:40:00 10° N 16:43:30 43° ENE 16:47:01 10° SSE
Cosmos 2058 Rocket 3.1 16:42:57 10° S 16:47:26 85° E 16:52:00 10° N
ERBS 3.7 16:46:41 10° NW 16:49:35 26° N 16:50:49 21° NE
ADEOS Rocket 4.2 16:43:43 10° N 16:49:49 49° WNW 16:56:33 10° SW
FALCON 9 DEB 2.9 16:46:55 10° WSW 16:50:10 89° SE 16:51:36 31° ENE
Cosmos 1689 Rocket 2.0 16:49:48 11° NNE 16:52:29 56° ESE 16:55:19 10° S
Cosmos 2369 4.2 16:47:55 10° S 16:53:04 36° ESE 16:57:12 15° NE
USA 281 4.4 16:47:09 10° S 16:53:23 45° WSW 16:59:40 10° NW
Cosmos 1076 Rocket 3.7 16:51:15 10° N 16:55:23 47° ENE 16:59:30 10° SSE
IRS-1C Rocket 4.2 16:51:18 10° SSE 16:56:35 81° WSW 17:01:54 10° NNW
SJ 16-02 3.6 16:56:24 10° NNE 16:56:44 10° NNE 16:56:44 10° NNE
FALCON 9 DEB 3.0 16:55:04 10° WNW 16:58:30 77° NNE 16:59:43 37° E
Cosmos 1709 Rocket 4.3 16:53:07 10° N 16:59:13 45° ENE 17:05:18 10° SE
Cosmos 2227 Rocket 2.7 16:53:39 10° NW 16:59:15 63° WSW 17:04:50 10° SSE
SL-08 ROCKET BODY 4.4 16:53:07 10° N 16:59:15 81° E 17:05:26 10° SSE
Cosmos 1892 2.7 16:55:38 10° NNW 16:59:32 83° W 17:03:25 10° S
FALCON 9 DEB 2.9 16:56:32 10° WSW 16:59:45 80° NNW 17:00:47 40° ENE
CZ-4C R/B 3.5 16:54:30 10° NW 17:00:31 36° NNE 17:04:27 22° ENE
CSL-04 Rocket 3.9 16:55:53 10° SE 17:01:10 48° ENE 17:06:27 10° N
Cosmos 2263 Rocket 3.0 16:56:17 10° NNW 17:01:24 32° NE 17:03:24 26° E
Cosmos 1939 Rocket 3.2 16:57:54 10° S 17:01:50 66° W 17:05:43 10° NNW
Cosmos 1302 Rocket 4.3 16:58:59 10° SSW 17:04:15 71° WNW 17:09:34 10° NNE
H-2A R/B 4.3 17:01:09 10° N 17:04:28 23° WNW 17:07:44 10° WSW
COSMO-SKYMED 1 2.5 17:02:16 10° NNE 17:06:39 89° ESE 17:11:00 10° SSW
USA 307 3.3 17:03:34 10° WNW 17:07:48 60° SSW 17:10:16 23° SE
SAR-Lupe-4 4.0 17:04:46 10° N 17:08:20 64° WNW 17:11:53 10° SSW
CZ-4B R/B 3.2 17:09:24 10° N 17:12:16 30° WNW 17:15:05 10° SW
USA 308 3.4 17:08:33 10° WNW 17:12:45 56° SSW 17:15:03 25° SE
Cosmos 1400 Rocket 3.7 17:09:27 10° SSW 17:13:27 50° WNW 17:17:25 10° N
Cosmos 1825 2.0 17:11:28 10° N 17:15:15 65° ENE 17:17:29 23° SSE
Cosmos 1697 Rocket 2.7 17:09:46 10° S 17:15:16 59° ESE 17:19:39 16° NE
ERS-2 4.0 17:12:44 10° N 17:15:59 31° WNW 17:19:14 10° SW
Helios 1A Rocket 3.3 17:15:02 10° S 17:19:06 64° WSW 17:23:11 10° NNW
YAOGAN 1 2.5 17:17:07 10° SSE 17:21:26 87° WSW 17:25:49 10° NNW
S3M 3.8 17:16:38 10° S 17:22:44 81° E 17:28:57 10° N
Cosmos 1503 Rocket 4.1 17:17:31 10° NNW 17:22:46 77° WSW 17:28:01 10° SSE
BREEZE-M TANK 3.6 17:17:07 10° W 17:23:36 42° SSW 17:25:00 29° SSE
Cosmos 2315 Rocket 4.1 17:20:40 10° SSE 17:26:33 47° E 17:32:27 10° NNE
CZ-2D R/B 4.3 17:23:34 10° S 17:27:14 46° W 17:30:55 10° NNW
Cosmos 1812 Rocket 3.4 17:23:50 10° S 17:28:12 67° E 17:32:32 10° NNE
Meteor 2-1 Rocket 4.0 17:23:14 10° S 17:28:45 84° E 17:34:19 10° NNE
DMSP B5D1-3 4.5 17:24:20 10° NNE 17:29:26 58° E 17:34:30 10° S
CZ-4 R/B 1.8 17:26:10 10° S 17:29:58 58° WSW 17:33:48 10° NNW
Cosmos 1346 Rocket 3.9 17:30:21 10° NNW 17:34:11 44° W 17:37:59 10° SSW
Cosmos 2058 3.8 17:30:56 10° NNW 17:34:54 49° W 17:38:52 10° S
Cosmos 1354 Rocket 4.2 17:30:19 10° NNW 17:35:34 70° WSW 17:40:48 10° SSE
SL-4 R/B 1.8 17:32:51 10° WNW 17:36:27 66° SSW 17:36:32 65° S
Cosmos 2151 3.0 17:33:50 10° N 17:37:31 57° NE 17:37:31 57° NE
Cosmos 2297 Rocket 4.2 17:33:40 10° NW 17:38:24 28° WSW 17:43:07 10° SSW
Cosmos 1980 Rocket 2.3 17:33:30 10° S 17:38:54 50° ESE 17:39:22 48° E
SJ-11-01 4.2 17:35:51 14° SSE 17:39:49 87° WSW 17:44:32 10° NNW
Cosmos 1992 Rocket 4.0 17:35:32 10° SSW 17:40:44 81° WNW 17:45:23 13° NNE
Timation 1 Rocket 4.4 17:36:00 10° NNW 17:42:03 76° WSW 17:46:16 20° SSE
Meteor 2-15 Rocket 4.5 17:37:12 10° SSW 17:43:22 82° WNW 17:49:33 10° N
CZ-2C R/B 3.6 17:37:58 10° S 17:43:42 65° WSW 17:49:16 10° NNW
CSL-04 Debris 4.2 17:38:41 10° SSE 17:44:08 80° WSW 17:49:40 10° NNW
Cosmos 1315 Rocket 3.3 17:43:14 10° SSW 17:47:10 60° WNW 17:51:11 10° N
CRYOSAT 2 4.4 17:44:22 10° N 17:49:14 76° W 17:54:05 10° SSW
Ariane Rocket 3.5 17:53:41 42° NNE 17:53:41 42° NNE 17:57:33 10° N
Geosat 3.9 17:52:54 64° SE 17:52:54 64° SE 17:57:41 10° SSW
Cosmos 2227 4.0 17:50:31 10° NNW 17:56:10 69° ENE 17:56:38 66° E
BREEZE-M R/B 4.1 17:52:29 10° W 17:56:51 64° SSW 17:59:00 44° SE
Meteor 2-10 Rocket 4.3 17:52:03 10° SSW 17:57:09 51° WNW 18:02:08 10° N
USA 305 4.4 17:53:34 10° WNW 17:57:20 30° SW 17:58:11 28° SSW
Cosmos 1455 3.4 17:55:26 10° SSW 17:59:02 41° WNW 18:02:41 10° N
SeaSat 1 2.3 18:00:38 80° ESE 18:00:53 86° ENE 18:05:52 10° NNW
Cosmos 2360 4.2 17:56:27 10° SSW 18:02:11 84° WNW 18:04:36 37° NNE
NOSS 3-4 (A) 3.8 17:56:05 10° NW 18:03:00 87° SW 18:05:39 45° SE
NOSS 3-4 (C) 3.8 17:56:11 10° NW 18:03:06 87° SW 18:05:43 45° SE
H-2A R/B 2.6 17:58:49 10° S 18:04:10 60° W 18:09:36 10° NNW
DEBRIS 4.1 17:49:25 10° WSW 18:05:59 70° SSE 18:06:54 61° ESE
MOS 1 Rocket 3.5 18:02:36 10° N 18:07:17 70° WNW 18:12:14 10° SSW
IRS-1A Rocket 4.3 18:10:51 64° NNE 18:10:51 64° NNE 18:15:46 10° NNW
USA 215 3.2 18:10:10 57° ENE 18:11:17 67° NNE 18:17:46 10° WNW
Cosmos 2278 3.6 18:06:43 10° SSW 18:12:24 88° ESE 18:12:45 80° NE
MOS 1 4.4 18:14:39 59° NNE 18:14:39 59° NNE 18:19:28 10° NNW
NOSS 3-3 (A) 4.1 18:07:53 10° SW 18:13:50 73° NW 18:16:10 42° NNE
NOSS 3-3 (C) 4.1 18:07:59 10° SW 18:13:57 74° NW 18:16:14 43° NNE
ATLAS 5 CENTAUR R/B 3.7 18:14:01 10° NW 18:17:34 21° N 18:17:34 21° N
GEOS 3 Rocket 4.1 18:17:20 50° SSW 18:18:15 58° SW 18:23:36 10° NW
Meteor 2-3 Rocket 3.6 18:13:46 10° NNW 18:19:32 89° W 18:19:36 88° SSW
ARGOS 3.6 18:17:21 29° SSW 18:20:02 58° W 18:25:25 10° NNW
COSMOS 2455 4.2 18:15:25 10° NNW 18:19:43 25° NNE 18:19:43 25° NNE
Lacrosse 5 2.4 18:16:05 10° WNW 18:20:11 51° NNW 18:20:11 51° NNW
Cosmos 44 Rocket 3.9 18:16:20 10° SW 18:19:57 51° WSW 18:19:57 51° WSW
ATLAS 2AS CENTAUR R/B 2.7 18:17:31 10° NW 18:25:07 82° SW 18:26:17 65° SSE
Cosmos 2278 Rocket 4.4 18:23:08 10° N 18:24:58 13° NNE 18:24:58 13° NNE
Cosmos 1844 Rocket 4.1 18:28:34 10° NNW 18:31:39 27° N 18:31:39 27° N
SJ 16-02 3.7 18:32:42 10° NNW 18:33:43 16° NNW 18:33:43 16° NNW
Cosmos 2184 Rocket 4.2 18:35:10 10° N 18:40:24 63° N 18:40:24 63° N
Cosmos 2263 Rocket 2.7 18:40:04 10° NW 18:45:08 55° W 18:45:08 55° W
CZ-4C R/B 2.8 18:42:59 10° NW 18:49:38 79° N 18:49:38 79° N
Cosmos 1697 Rocket 4.3 18:54:37 10° WSW 18:59:36 31° NW 19:01:26 26° NNW
Cosmos 1980 Rocket 3.9 19:17:58 10° WSW 19:21:13 28° W 19:21:13 28° W
